Data supplied by UK-AIR on 5/4/2008
All Data GMT hour ending 
Status: R =Ratified P=Provisional,P*=As supplied
,,Glasgow Kerbside,,,,,,,,,,,,,,,,,,,,,,,
Date,time,"Carbon monoxide",status,unit,"PM10 particulate matter (Hourly measured)",status,unit,"Nitric oxide",status,unit,"Nitrogen dioxide",status,unit,"Nitrogen oxides as nitrogen dioxide",status,unit
 
01-01-1999,01:00,1.2,R,mgm-3,25,R,ugm-3 (GRAV EQ),151,R,ugm-3,61,R,ugm-3,292,R,ugm-3
01-01-1999,02:00,1.6,R,mgm-3,26,R,ugm-3 (GRAV EQ),121,R,ugm-3,52,R,ugm-3,237,R,ugm-3
01-01-1999,03:00,1.9,R,mgm-3,27,R,ugm-3 (GRAV EQ),116,R,ugm-3,48,R,ugm-3,225,R,ugm-3
01-01-1999,04:00,1.7,R,mgm-3,22,R,ugm-3 (GRAV EQ),126,R,ugm-3,55,R,ugm-3,248,R,ugm-3
01-01-1999,05:00,1.6,R,mgm-3,18,R,ugm-3 (GRAV EQ),96,R,ugm-3,50,R,ugm-3,197,R,ugm-3
01-01-1999,06:00,0.7,R,mgm-3,8,R,ugm-3 (GRAV EQ),24,R,ugm-3,25,R,ugm-3,61,R,ugm-3
01-01-1999,07:00,0.6,R,mgm-3,9,R,ugm-3 (GRAV EQ),23,R,ugm-3,25,R,ugm-3,59,R,ugm-3
01-01-1999,08:00,0.6,R,mgm-3,4,R,ugm-3 (GRAV EQ),20,R,ugm-3,29,R,ugm-3,59,R,ugm-3
01-01-1999,09:00,0.3,R,mgm-3,-1,R,ugm-3 (GRAV EQ),18,R,ugm-3,34,R,ugm-3,61,R,ugm-3
01-01-1999,10:00,0.5,R,mgm-3,0,R,ugm-3 (GRAV EQ),9,R,ugm-3,19,R,ugm-3,32,R,ugm-3
01-01-1999,11:00,0.3,R,mgm-3,1,R,ugm-3 (GRAV EQ),10,R,ugm-3,17,R,ugm-3,32,R,ugm-3
01-01-1999,12:00,0.5,R,mgm-3,3,R,ugm-3 (GRAV EQ),16,R,ugm-3,21,R,ugm-3,46,R,ugm-3
01-01-1999,13:00,0.6,R,mgm-3,4,R,ugm-3 (GRAV EQ),14,R,ugm-3,19,R,ugm-3,40,R,ugm-3
01-01-1999,14:00,0.7,R,mgm-3,4,R,ugm-3 (GRAV EQ),20,R,ugm-3,23,R,ugm-3,53,R,ugm-3
01-01-1999,15:00,0.7,R,mgm-3,8,R,ugm-3 (GRAV EQ),19,R,ugm-3,25,R,ugm-3,53,R,ugm-3
01-01-1999,16:00,0.7,R,mgm-3,5,R,ugm-3 (GRAV EQ),19,R,ugm-3,25,R,ugm-3,53,R,ugm-3
01-01-1999,17:00,0.6,R,mgm-3,1,R,ugm-3 (GRAV EQ),13,R,ugm-3,19,R,ugm-3,38,R,ugm-3
01-01-1999,18:00,0.7,R,mgm-3,10,R,ugm-3 (GRAV EQ),15,R,ugm-3,21,R,ugm-3,44,R,ugm-3
01-01-1999,19:00,0.6,R,mgm-3,0,R,ugm-3 (GRAV EQ),11,R,ugm-3,19,R,ugm-3,36,R,ugm-3
01-01-1999,20:00,0.7,R,mgm-3,3,R,ugm-3 (GRAV EQ),20,R,ugm-3,25,R,ugm-3,55,R,ugm-3
01-01-1999,21:00,0.8,R,mgm-3,7,R,ugm-3 (GRAV EQ),23,R,ugm-3,31,R,ugm-3,65,R,ugm-3
01-01-1999,22:00,0.7,R,mgm-3,3,R,ugm-3 (GRAV EQ),16,R,ugm-3,21,R,ugm-3,46,R,ugm-3
01-01-1999,23:00,0.9,R,mgm-3,1,R,ugm-3 (GRAV EQ),23,R,ugm-3,32,R,ugm-3,67,R,ugm-3
01-01-1999,24:00,0.7,R,mgm-3,7,R,ugm-3 (GRAV EQ),23,R,ugm-3,27,R,ugm-3,61,R,ugm-3
02-01-1999,01:00,0.6,R,mgm-3,1,R,ugm-3 (GRAV EQ),16,R,ugm-3,19,R,ugm-3,44,R,ugm-3
02-01-1999,02:00,0.5,R,mgm-3,-3,R,ugm-3 (GRAV EQ),11,R,ugm-3,19,R,ugm-3,36,R,ugm-3
02-01-1999,03:00,0.5,R,mgm-3,-4,R,ugm-3 (GRAV EQ),10,R,ugm-3,13,R,ugm-3,29,R,ugm-3
02-01-1999,04:00,0.5,R,mgm-3,-3,R,ugm-3 (GRAV EQ),8,R,ugm-3,11,R,ugm-3,23,R,ugm-3
02-01-1999,05:00,0.5,R,mgm-3,-4,R,ugm-3 (GRAV EQ),4,R,ugm-3,10,R,ugm-3,15,R,ugm-3
02-01-1999,06:00,0.3,R,mgm-3,-3,R,ugm-3 (GRAV EQ),1,R,ugm-3,6,R,ugm-3,8,R,ugm-3
02-01-1999,07:00,0.5,R,mgm-3,8,R,ugm-3 (GRAV EQ),14,R,ugm-3,17,R,ugm-3,38,R,ugm-3
02-01-1999,08:00,0.5,R,mgm-3,8,R,ugm-3 (GRAV EQ),15,R,ugm-3,17,R,ugm-3,40,R,ugm-3
02-01-1999,09:00,0.5,R,mgm-3,4,R,ugm-3 (GRAV EQ),20,R,ugm-3,21,R,ugm-3,52,R,ugm-3
02-01-1999,10:00,0.6,R,mgm-3,0,R,ugm-3 (GRAV EQ),26,R,ugm-3,25,R,ugm-3,65,R,ugm-3
02-01-1999,11:00,0.6,R,mgm-3,5,R,ugm-3 (GRAV EQ),18,R,ugm-3,19,R,ugm-3,46,R,ugm-3
02-01-1999,12:00,0.7,R,mgm-3,7,R,ugm-3 (GRAV EQ),26,R,ugm-3,29,R,ugm-3,69,R,ugm-3
02-01-1999,13:00,0.7,R,mgm-3,8,R,ugm-3 (GRAV EQ),28,R,ugm-3,34,R,ugm-3,76,R,ugm-3
02-01-1999,14:00,0.7,R,mgm-3,8,R,ugm-3 (GRAV EQ),15,R,ugm-3,52,R,ugm-3,74,R,ugm-3
02-01-1999,15:00,0.7,R,mgm-3,8,R,ugm-3 (GRAV EQ),18,R,ugm-3,38,R,ugm-3,65,R,ugm-3
02-01-1999,16:00,0.8,R,mgm-3,12,R,ugm-3 (GRAV EQ),25,R,ugm-3,46,R,ugm-3,84,R,ugm-3
02-01-1999,17:00,0.7,R,mgm-3,10,R,ugm-3 (GRAV EQ),18,R,ugm-3,34,R,ugm-3,61,R,ugm-3
02-01-1999,18:00,0.7,R,mgm-3,12,R,ugm-3 (GRAV EQ),18,R,ugm-3,38,R,ugm-3,65,R,ugm-3
02-01-1999,19:00,0.6,R,mgm-3,9,R,ugm-3 (GRAV EQ),14,R,ugm-3,40,R,ugm-3,61,R,ugm-3
02-01-1999,20:00,0.5,R,mgm-3,9,R,ugm-3 (GRAV EQ),16,R,ugm-3,34,R,ugm-3,59,R,ugm-3
02-01-1999,21:00,0.6,R,mgm-3,9,R,ugm-3 (GRAV EQ),19,R,ugm-3,27,R,ugm-3,55,R,ugm-3
02-01-1999,22:00,0.6,R,mgm-3,9,R,ugm-3 (GRAV EQ),15,R,ugm-3,25,R,ugm-3,48,R,ugm-3
02-01-1999,23:00,0.6,R,mgm-3,7,R,ugm-3 (GRAV EQ),11,R,ugm-3,25,R,ugm-3,42,R,ugm-3
02-01-1999,24:00,0.6,R,mgm-3,4,R,ugm-3 (GRAV EQ),20,R,ugm-3,29,R,ugm-3,59,R,ugm-3
03-01-1999,01:00,0.5,R,mgm-3,10,R,ugm-3 (GRAV EQ),8,R,ugm-3,17,R,ugm-3,29,R,ugm-3
03-01-1999,02:00,0.3,R,mgm-3,17,R,ugm-3 (GRAV EQ),8,R,ugm-3,11,R,ugm-3,23,R,ugm-3
03-01-1999,03:00,0.2,R,mgm-3,17,R,ugm-3 (GRAV EQ),5,R,ugm-3,19,R,ugm-3,27,R,ugm-3
03-01-1999,04:00,0.5,R,mgm-3,18,R,ugm-3 (GRAV EQ),10,R,ugm-3,21,R,ugm-3,36,R,ugm-3
03-01-1999,05:00,0.5,R,mgm-3,21,R,ugm-3 (GRAV EQ),10,R,ugm-3,13,R,ugm-3,29,R,ugm-3
03-01-1999,06:00,0.2,R,mgm-3,21,R,ugm-3 (GRAV EQ),3,R,ugm-3,6,R,ugm-3,10,R,ugm-3
03-01-1999,07:00,0.2,R,mgm-3,20,R,ugm-3 (GRAV EQ),3,R,ugm-3,4,R,ugm-3,8,R,ugm-3
03-01-1999,08:00,0.2,R,mgm-3,20,R,ugm-3 (GRAV EQ),6,R,ugm-3,13,R,ugm-3,23,R,ugm-3
03-01-1999,09:00,0.2,R,mgm-3,17,R,ugm-3 (GRAV EQ),8,R,ugm-3,15,R,ugm-3,27,R,ugm-3
03-01-1999,10:00,0.2,R,mgm-3,16,R,ugm-3 (GRAV EQ),10,R,ugm-3,15,R,ugm-3,31,R,ugm-3
03-01-1999,11:00,0.2,R,mgm-3,10,R,ugm-3 (GRAV EQ),13,R,ugm-3,21,R,ugm-3,40,R,ugm-3
03-01-1999,12:00,0.3,R,mgm-3,8,R,ugm-3 (GRAV EQ),16,R,ugm-3,27,R,ugm-3,52,R,ugm-3
03-01-1999,13:00,0.9,R,mgm-3,17,R,ugm-3 (GRAV EQ),44,R,ugm-3,46,R,ugm-3,113,R,ugm-3
03-01-1999,14:00,1.0,R,mgm-3,26,R,ugm-3 (GRAV EQ),65,R,ugm-3,48,R,ugm-3,147,R,ugm-3
03-01-1999,15:00,0.8,R,mgm-3,20,R,ugm-3 (GRAV EQ),43,R,ugm-3,44,R,ugm-3,109,R,ugm-3
03-01-1999,16:00,0.7,R,mgm-3,12,R,ugm-3 (GRAV EQ),40,R,ugm-3,48,R,ugm-3,109,R,ugm-3
03-01-1999,17:00,0.9,R,mgm-3,20,R,ugm-3 (GRAV EQ),48,R,ugm-3,50,R,ugm-3,122,R,ugm-3
03-01-1999,18:00,1.3,R,mgm-3,25,R,ugm-3 (GRAV EQ),106,R,ugm-3,59,R,ugm-3,222,R,ugm-3
03-01-1999,19:00,0.8,R,mgm-3,18,R,ugm-3 (GRAV EQ),64,R,ugm-3,48,R,ugm-3,145,R,ugm-3
03-01-1999,20:00,0.9,R,mgm-3,20,R,ugm-3 (GRAV EQ),85,R,ugm-3,55,R,ugm-3,185,R,ugm-3
03-01-1999,21:00,1.5,R,mgm-3,26,R,ugm-3 (GRAV EQ),135,R,ugm-3,57,R,ugm-3,264,R,ugm-3
03-01-1999,22:00,0.9,R,mgm-3,7,R,ugm-3 (GRAV EQ),81,R,ugm-3,50,R,ugm-3,174,R,ugm-3
03-01-1999,23:00,0.7,R,mgm-3,-1,R,ugm-3 (GRAV EQ),54,R,ugm-3,50,R,ugm-3,132,R,ugm-3
03-01-1999,24:00,0.6,R,mgm-3,0,R,ugm-3 (GRAV EQ),46,R,ugm-3,38,R,ugm-3,109,R,ugm-3
04-01-1999,01:00,0.3,R,mgm-3,-1,R,ugm-3 (GRAV EQ),10,R,ugm-3,19,R,ugm-3,34,R,ugm-3
04-01-1999,02:00,0.2,R,mgm-3,4,R,ugm-3 (GRAV EQ),11,R,ugm-3,17,R,ugm-3,34,R,ugm-3
04-01-1999,03:00,0.3,R,mgm-3,5,R,ugm-3 (GRAV EQ),11,R,ugm-3,13,R,ugm-3,31,R,ugm-3
04-01-1999,04:00,0.2,R,mgm-3,10,R,ugm-3 (GRAV EQ),10,R,ugm-3,15,R,ugm-3,31,R,ugm-3
04-01-1999,05:00,0.3,R,mgm-3,17,R,ugm-3 (GRAV EQ),8,R,ugm-3,13,R,ugm-3,25,R,ugm-3
04-01-1999,06:00,0.2,R,mgm-3,25,R,ugm-3 (GRAV EQ),4,R,ugm-3,67,R,ugm-3,73,R,ugm-3
04-01-1999,07:00,0.2,R,mgm-3,26,R,ugm-3 (GRAV EQ),5,R,ugm-3,107,R,ugm-3,115,R,ugm-3
04-01-1999,08:00,0.3,R,mgm-3,33,R,ugm-3 (GRAV EQ),5,R,ugm-3,166,R,ugm-3,174,R,ugm-3
04-01-1999,09:00,0.5,R,mgm-3,35,R,ugm-3 (GRAV EQ),5,R,ugm-3,225,R,ugm-3,233,R,ugm-3
04-01-1999,10:00,0.5,R,mgm-3,31,R,ugm-3 (GRAV EQ),4,R,ugm-3,265,R,ugm-3,271,R,ugm-3
04-01-1999,11:00,0.5,R,mgm-3,33,R,ugm-3 (GRAV EQ),4,R,ugm-3,304,R,ugm-3,309,R,ugm-3
04-01-1999,12:00,0.5,R,mgm-3,26,R,ugm-3 (GRAV EQ),4,R,ugm-3,283,R,ugm-3,288,R,ugm-3
04-01-1999,13:00,0.5,R,mgm-3,17,R,ugm-3 (GRAV EQ),1,R,ugm-3,264,R,ugm-3,265,R,ugm-3
04-01-1999,14:00,0.5,R,mgm-3,16,R,ugm-3 (GRAV EQ),3,R,ugm-3,216,R,ugm-3,220,R,ugm-3
04-01-1999,15:00,,,,18,R,ugm-3 (GRAV EQ),,,,,,,,,
04-01-1999,16:00,0.6,R,mgm-3,20,R,ugm-3 (GRAV EQ),4,R,ugm-3,183,R,ugm-3,189,R,ugm-3
04-01-1999,17:00,0.5,R,mgm-3,33,R,ugm-3 (GRAV EQ),6,R,ugm-3,204,R,ugm-3,214,R,ugm-3
04-01-1999,18:00,0.5,R,mgm-3,31,R,ugm-3 (GRAV EQ),9,R,ugm-3,168,R,ugm-3,181,R,ugm-3
04-01-1999,19:00,0.3,R,mgm-3,36,R,ugm-3 (GRAV EQ),11,R,ugm-3,109,R,ugm-3,126,R,ugm-3
04-01-1999,20:00,0.3,R,mgm-3,31,R,ugm-3 (GRAV EQ),14,R,ugm-3,65,R,ugm-3,86,R,ugm-3
04-01-1999,21:00,0.3,R,mgm-3,31,R,ugm-3 (GRAV EQ),14,R,ugm-3,42,R,ugm-3,63,R,ugm-3
04-01-1999,22:00,0.3,R,mgm-3,29,R,ugm-3 (GRAV EQ),15,R,ugm-3,38,R,ugm-3,61,R,ugm-3
04-01-1999,23:00,0.5,R,mgm-3,27,R,ugm-3 (GRAV EQ),21,R,ugm-3,34,R,ugm-3,67,R,ugm-3
04-01-1999,24:00,0.3,R,mgm-3,29,R,ugm-3 (GRAV EQ),18,R,ugm-3,25,R,ugm-3,52,R,ugm-3
05-01-1999,01:00,0.2,R,mgm-3,27,R,ugm-3 (GRAV EQ),6,R,ugm-3,13,R,ugm-3,23,R,ugm-3
05-01-1999,02:00,0.2,R,mgm-3,26,R,ugm-3 (GRAV EQ),5,R,ugm-3,17,R,ugm-3,25,R,ugm-3
05-01-1999,03:00,0.2,R,mgm-3,23,R,ugm-3 (GRAV EQ),5,R,ugm-3,15,R,ugm-3,23,R,ugm-3
05-01-1999,04:00,0.2,R,mgm-3,21,R,ugm-3 (GRAV EQ),6,R,ugm-3,15,R,ugm-3,25,R,ugm-3
05-01-1999,05:00,0.2,R,mgm-3,25,R,ugm-3 (GRAV EQ),5,R,ugm-3,15,R,ugm-3,23,R,ugm-3
05-01-1999,06:00,0.3,R,mgm-3,26,R,ugm-3 (GRAV EQ),23,R,ugm-3,31,R,ugm-3,65,R,ugm-3
05-01-1999,07:00,0.5,R,mgm-3,27,R,ugm-3 (GRAV EQ),96,R,ugm-3,55,R,ugm-3,202,R,ugm-3
05-01-1999,08:00,1.4,R,mgm-3,48,R,ugm-3 (GRAV EQ),343,R,ugm-3,88,R,ugm-3,611,R,ugm-3
05-01-1999,09:00,1.7,R,mgm-3,51,R,ugm-3 (GRAV EQ),333,R,ugm-3,103,R,ugm-3,611,R,ugm-3
05-01-1999,10:00,1.6,R,mgm-3,56,R,ugm-3 (GRAV EQ),416,R,ugm-3,117,R,ugm-3,753,R,ugm-3
05-01-1999,11:00,1.6,R,mgm-3,59,R,ugm-3 (GRAV EQ),500,R,ugm-3,122,R,ugm-3,886,R,ugm-3
05-01-1999,12:00,1.6,R,mgm-3,48,R,ugm-3 (GRAV EQ),378,R,ugm-3,107,R,ugm-3,684,R,ugm-3
05-01-1999,13:00,1.7,R,mgm-3,47,R,ugm-3 (GRAV EQ),444,R,ugm-3,118,R,ugm-3,796,R,ugm-3
05-01-1999,14:00,2.3,R,mgm-3,52,R,ugm-3 (GRAV EQ),456,R,ugm-3,120,R,ugm-3,817,R,ugm-3
05-01-1999,15:00,3.5,R,mgm-3,65,R,ugm-3 (GRAV EQ),535,R,ugm-3,122,R,ugm-3,940,R,ugm-3
05-01-1999,16:00,2.3,R,mgm-3,56,R,ugm-3 (GRAV EQ),501,R,ugm-3,115,R,ugm-3,881,R,ugm-3
05-01-1999,17:00,2.7,R,mgm-3,48,R,ugm-3 (GRAV EQ),434,R,ugm-3,103,R,ugm-3,766,R,ugm-3
05-01-1999,18:00,2.6,R,mgm-3,51,R,ugm-3 (GRAV EQ),451,R,ugm-3,107,R,ugm-3,796,R,ugm-3
05-01-1999,19:00,1.9,R,mgm-3,34,R,ugm-3 (GRAV EQ),290,R,ugm-3,84,R,ugm-3,527,R,ugm-3
05-01-1999,20:00,1.5,R,mgm-3,20,R,ugm-3 (GRAV EQ),185,R,ugm-3,73,R,ugm-3,355,R,ugm-3
05-01-1999,21:00,1.6,R,mgm-3,26,R,ugm-3 (GRAV EQ),286,R,ugm-3,78,R,ugm-3,516,R,ugm-3
05-01-1999,22:00,1.4,R,mgm-3,20,R,ugm-3 (GRAV EQ),178,R,ugm-3,65,R,ugm-3,336,R,ugm-3
05-01-1999,23:00,1.5,R,mgm-3,26,R,ugm-3 (GRAV EQ),186,R,ugm-3,61,R,ugm-3,346,R,ugm-3
05-01-1999,24:00,1.7,R,mgm-3,34,R,ugm-3 (GRAV EQ),196,R,ugm-3,57,R,ugm-3,357,R,ugm-3
06-01-1999,01:00,1.5,R,mgm-3,33,R,ugm-3 (GRAV EQ),133,R,ugm-3,57,R,ugm-3,260,R,ugm-3
06-01-1999,02:00,0.7,R,mgm-3,16,R,ugm-3 (GRAV EQ),26,R,ugm-3,44,R,ugm-3,84,R,ugm-3
06-01-1999,03:00,0.6,R,mgm-3,5,R,ugm-3 (GRAV EQ),20,R,ugm-3,38,R,ugm-3,69,R,ugm-3
06-01-1999,04:00,0.5,R,mgm-3,3,R,ugm-3 (GRAV EQ),11,R,ugm-3,34,R,ugm-3,52,R,ugm-3
06-01-1999,05:00,0.5,R,mgm-3,9,R,ugm-3 (GRAV EQ),28,R,ugm-3,38,R,ugm-3,80,R,ugm-3
06-01-1999,06:00,0.5,R,mgm-3,8,R,ugm-3 (GRAV EQ),21,R,ugm-3,36,R,ugm-3,69,R,ugm-3
06-01-1999,07:00,0.5,R,mgm-3,4,R,ugm-3 (GRAV EQ),36,R,ugm-3,36,R,ugm-3,92,R,ugm-3
06-01-1999,08:00,0.7,R,mgm-3,7,R,ugm-3 (GRAV EQ),90,R,ugm-3,59,R,ugm-3,197,R,ugm-3
06-01-1999,09:00,1.0,R,mgm-3,18,R,ugm-3 (GRAV EQ),134,R,ugm-3,74,R,ugm-3,279,R,ugm-3
06-01-1999,10:00,1.2,R,mgm-3,25,R,ugm-3 (GRAV EQ),173,R,ugm-3,80,R,ugm-3,344,R,ugm-3
06-01-1999,11:00,,,,27,R,ugm-3 (GRAV EQ),,,,,,,,,
06-01-1999,12:00,,,,31,R,ugm-3 (GRAV EQ),154,R,ugm-3,78,R,ugm-3,313,R,ugm-3
06-01-1999,13:00,1.2,R,mgm-3,35,R,ugm-3 (GRAV EQ),190,R,ugm-3,82,R,ugm-3,372,R,ugm-3
06-01-1999,14:00,0.9,R,mgm-3,22,R,ugm-3 (GRAV EQ),108,R,ugm-3,67,R,ugm-3,231,R,ugm-3
06-01-1999,15:00,0.9,R,mgm-3,16,R,ugm-3 (GRAV EQ),96,R,ugm-3,65,R,ugm-3,212,R,ugm-3
06-01-1999,16:00,1.4,R,mgm-3,34,R,ugm-3 (GRAV EQ),211,R,ugm-3,82,R,ugm-3,405,R,ugm-3
06-01-1999,17:00,1.9,R,mgm-3,38,R,ugm-3 (GRAV EQ),243,R,ugm-3,76,R,ugm-3,447,R,ugm-3
06-01-1999,18:00,2.8,R,mgm-3,36,R,ugm-3 (GRAV EQ),316,R,ugm-3,80,R,ugm-3,563,R,ugm-3
06-01-1999,19:00,2.8,R,mgm-3,39,R,ugm-3 (GRAV EQ),319,R,ugm-3,80,R,ugm-3,567,R,ugm-3
06-01-1999,20:00,1.7,R,mgm-3,23,R,ugm-3 (GRAV EQ),198,R,ugm-3,73,R,ugm-3,374,R,ugm-3
06-01-1999,21:00,2.7,R,mgm-3,44,R,ugm-3 (GRAV EQ),353,R,ugm-3,84,R,ugm-3,623,R,ugm-3
06-01-1999,22:00,2.2,R,mgm-3,30,R,ugm-3 (GRAV EQ),271,R,ugm-3,84,R,ugm-3,499,R,ugm-3
06-01-1999,23:00,2.6,R,mgm-3,31,R,ugm-3 (GRAV EQ),298,R,ugm-3,76,R,ugm-3,531,R,ugm-3
06-01-1999,24:00,3.6,R,mgm-3,55,R,ugm-3 (GRAV EQ),406,R,ugm-3,84,R,ugm-3,705,R,ugm-3
07-01-1999,01:00,2.6,R,mgm-3,36,R,ugm-3 (GRAV EQ),214,R,ugm-3,76,R,ugm-3,403,R,ugm-3
07-01-1999,02:00,1.3,R,mgm-3,20,R,ugm-3 (GRAV EQ),76,R,ugm-3,63,R,ugm-3,180,R,ugm-3
07-01-1999,03:00,1.2,R,mgm-3,17,R,ugm-3 (GRAV EQ),84,R,ugm-3,63,R,ugm-3,191,R,ugm-3
07-01-1999,04:00,1.4,R,mgm-3,21,R,ugm-3 (GRAV EQ),101,R,ugm-3,53,R,ugm-3,208,R,ugm-3
07-01-1999,05:00,0.9,R,mgm-3,14,R,ugm-3 (GRAV EQ),69,R,ugm-3,50,R,ugm-3,155,R,ugm-3
07-01-1999,06:00,0.8,R,mgm-3,9,R,ugm-3 (GRAV EQ),69,R,ugm-3,46,R,ugm-3,151,R,ugm-3
07-01-1999,07:00,0.9,R,mgm-3,18,R,ugm-3 (GRAV EQ),208,R,ugm-3,63,R,ugm-3,380,R,ugm-3
07-01-1999,08:00,1.5,R,mgm-3,35,R,ugm-3 (GRAV EQ),319,R,ugm-3,80,R,ugm-3,567,R,ugm-3
07-01-1999,09:00,3.4,R,mgm-3,87,R,ugm-3 (GRAV EQ),714,R,ugm-3,107,R,ugm-3,1198,R,ugm-3
07-01-1999,10:00,2.8,R,mgm-3,153,R,ugm-3 (GRAV EQ),585,R,ugm-3,103,R,ugm-3,997,R,ugm-3
07-01-1999,11:00,2.8,R,mgm-3,101,R,ugm-3 (GRAV EQ),601,R,ugm-3,105,R,ugm-3,1024,R,ugm-3
07-01-1999,12:00,2.4,R,mgm-3,117,R,ugm-3 (GRAV EQ),529,R,ugm-3,117,R,ugm-3,924,R,ugm-3
07-01-1999,13:00,1.9,R,mgm-3,70,R,ugm-3 (GRAV EQ),401,R,ugm-3,105,R,ugm-3,718,R,ugm-3
07-01-1999,14:00,2.1,R,mgm-3,61,R,ugm-3 (GRAV EQ),470,R,ugm-3,117,R,ugm-3,835,R,ugm-3
07-01-1999,15:00,2.7,R,mgm-3,66,R,ugm-3 (GRAV EQ),685,R,ugm-3,120,R,ugm-3,1167,R,ugm-3
07-01-1999,16:00,2.9,R,mgm-3,82,R,ugm-3 (GRAV EQ),774,R,ugm-3,128,R,ugm-3,1310,R,ugm-3
07-01-1999,17:00,3.1,R,mgm-3,74,R,ugm-3 (GRAV EQ),681,R,ugm-3,111,R,ugm-3,1152,R,ugm-3
07-01-1999,18:00,3.5,R,mgm-3,73,R,ugm-3 (GRAV EQ),716,R,ugm-3,126,R,ugm-3,1220,R,ugm-3
07-01-1999,19:00,2.3,R,mgm-3,53,R,ugm-3 (GRAV EQ),466,R,ugm-3,101,R,ugm-3,814,R,ugm-3
07-01-1999,20:00,2.1,R,mgm-3,39,R,ugm-3 (GRAV EQ),350,R,ugm-3,80,R,ugm-3,615,R,ugm-3
07-01-1999,21:00,2.3,R,mgm-3,38,R,ugm-3 (GRAV EQ),385,R,ugm-3,99,R,ugm-3,688,R,ugm-3
07-01-1999,22:00,2.0,R,mgm-3,33,R,ugm-3 (GRAV EQ),275,R,ugm-3,78,R,ugm-3,499,R,ugm-3
07-01-1999,23:00,2.0,R,mgm-3,29,R,ugm-3 (GRAV EQ),256,R,ugm-3,76,R,ugm-3,468,R,ugm-3
07-01-1999,24:00,1.7,R,mgm-3,36,R,ugm-3 (GRAV EQ),225,R,ugm-3,76,R,ugm-3,420,R,ugm-3
08-01-1999,01:00,1.7,R,mgm-3,26,R,ugm-3 (GRAV EQ),169,R,ugm-3,69,R,ugm-3,327,R,ugm-3
08-01-1999,02:00,1.2,R,mgm-3,20,R,ugm-3 (GRAV EQ),96,R,ugm-3,55,R,ugm-3,202,R,ugm-3
08-01-1999,03:00,0.9,R,mgm-3,10,R,ugm-3 (GRAV EQ),53,R,ugm-3,48,R,ugm-3,128,R,ugm-3
08-01-1999,04:00,0.6,R,mgm-3,4,R,ugm-3 (GRAV EQ),26,R,ugm-3,42,R,ugm-3,82,R,ugm-3
08-01-1999,05:00,0.6,R,mgm-3,1,R,ugm-3 (GRAV EQ),16,R,ugm-3,36,R,ugm-3,61,R,ugm-3
08-01-1999,06:00,0.6,R,mgm-3,3,R,ugm-3 (GRAV EQ),29,R,ugm-3,44,R,ugm-3,88,R,ugm-3
08-01-1999,07:00,0.9,R,mgm-3,10,R,ugm-3 (GRAV EQ),128,R,ugm-3,59,R,ugm-3,254,R,ugm-3
08-01-1999,08:00,1.7,R,mgm-3,38,R,ugm-3 (GRAV EQ),391,R,ugm-3,82,R,ugm-3,680,R,ugm-3
08-01-1999,09:00,2.3,R,mgm-3,72,R,ugm-3 (GRAV EQ),604,R,ugm-3,103,R,ugm-3,1026,R,ugm-3
08-01-1999,10:00,2.2,R,mgm-3,66,R,ugm-3 (GRAV EQ),501,R,ugm-3,92,R,ugm-3,858,R,ugm-3
08-01-1999,11:00,2.1,R,mgm-3,56,R,ugm-3 (GRAV EQ),473,R,ugm-3,96,R,ugm-3,817,R,ugm-3
08-01-1999,12:00,2.8,R,mgm-3,87,R,ugm-3 (GRAV EQ),539,R,ugm-3,96,R,ugm-3,919,R,ugm-3
08-01-1999,13:00,2.7,R,mgm-3,79,R,ugm-3 (GRAV EQ),505,R,ugm-3,109,R,ugm-3,881,R,ugm-3
08-01-1999,14:00,2.2,R,mgm-3,60,R,ugm-3 (GRAV EQ),425,R,ugm-3,101,R,ugm-3,751,R,ugm-3
08-01-1999,15:00,2.2,R,mgm-3,46,R,ugm-3 (GRAV EQ),398,R,ugm-3,101,R,ugm-3,709,R,ugm-3
08-01-1999,16:00,1.5,R,mgm-3,22,R,ugm-3 (GRAV EQ),179,R,ugm-3,69,R,ugm-3,342,R,ugm-3
08-01-1999,17:00,1.9,R,mgm-3,25,R,ugm-3 (GRAV EQ),276,R,ugm-3,78,R,ugm-3,500,R,ugm-3
08-01-1999,18:00,2.4,R,mgm-3,31,R,ugm-3 (GRAV EQ),345,R,ugm-3,88,R,ugm-3,615,R,ugm-3
08-01-1999,19:00,2.3,R,mgm-3,27,R,ugm-3 (GRAV EQ),280,R,ugm-3,82,R,ugm-3,510,R,ugm-3
08-01-1999,20:00,2.4,R,mgm-3,35,R,ugm-3 (GRAV EQ),328,R,ugm-3,86,R,ugm-3,586,R,ugm-3
08-01-1999,21:00,2.0,R,mgm-3,29,R,ugm-3 (GRAV EQ),304,R,ugm-3,90,R,ugm-3,554,R,ugm-3
08-01-1999,22:00,2.2,R,mgm-3,31,R,ugm-3 (GRAV EQ),291,R,ugm-3,82,R,ugm-3,527,R,ugm-3
08-01-1999,23:00,2.2,R,mgm-3,26,R,ugm-3 (GRAV EQ),258,R,ugm-3,78,R,ugm-3,472,R,ugm-3
08-01-1999,24:00,2.6,R,mgm-3,31,R,ugm-3 (GRAV EQ),316,R,ugm-3,94,R,ugm-3,577,R,ugm-3
09-01-1999,01:00,2.9,R,mgm-3,33,R,ugm-3 (GRAV EQ),265,R,ugm-3,67,R,ugm-3,472,R,ugm-3
09-01-1999,02:00,1.6,R,mgm-3,25,R,ugm-3 (GRAV EQ),166,R,ugm-3,59,R,ugm-3,313,R,ugm-3
09-01-1999,03:00,1.6,R,mgm-3,17,R,ugm-3 (GRAV EQ),156,R,ugm-3,61,R,ugm-3,300,R,ugm-3
09-01-1999,04:00,1.5,R,mgm-3,22,R,ugm-3 (GRAV EQ),168,R,ugm-3,74,R,ugm-3,330,R,ugm-3
09-01-1999,05:00,0.9,R,mgm-3,7,R,ugm-3 (GRAV EQ),65,R,ugm-3,52,R,ugm-3,151,R,ugm-3
09-01-1999,06:00,0.7,R,mgm-3,0,R,ugm-3 (GRAV EQ),49,R,ugm-3,50,R,ugm-3,124,R,ugm-3
09-01-1999,07:00,0.7,R,mgm-3,3,R,ugm-3 (GRAV EQ),83,R,ugm-3,55,R,ugm-3,181,R,ugm-3
09-01-1999,08:00,0.8,R,mgm-3,8,R,ugm-3 (GRAV EQ),80,R,ugm-3,61,R,ugm-3,183,R,ugm-3
09-01-1999,09:00,1.4,R,mgm-3,27,R,ugm-3 (GRAV EQ),263,R,ugm-3,76,R,ugm-3,478,R,ugm-3
09-01-1999,10:00,2.3,R,mgm-3,47,R,ugm-3 (GRAV EQ),443,R,ugm-3,90,R,ugm-3,766,R,ugm-3
09-01-1999,11:00,1.7,R,mgm-3,36,R,ugm-3 (GRAV EQ),324,R,ugm-3,86,R,ugm-3,581,R,ugm-3
09-01-1999,12:00,2.3,R,mgm-3,42,R,ugm-3 (GRAV EQ),361,R,ugm-3,92,R,ugm-3,644,R,ugm-3
09-01-1999,13:00,1.3,R,mgm-3,20,R,ugm-3 (GRAV EQ),144,R,ugm-3,71,R,ugm-3,290,R,ugm-3
09-01-1999,14:00,1.5,R,mgm-3,21,R,ugm-3 (GRAV EQ),169,R,ugm-3,78,R,ugm-3,336,R,ugm-3
09-01-1999,15:00,1.7,R,mgm-3,29,R,ugm-3 (GRAV EQ),298,R,ugm-3,94,R,ugm-3,548,R,ugm-3
09-01-1999,16:00,1.6,R,mgm-3,18,R,ugm-3 (GRAV EQ),173,R,ugm-3,76,R,ugm-3,340,R,ugm-3
09-01-1999,17:00,3.6,R,mgm-3,46,R,ugm-3 (GRAV EQ),465,R,ugm-3,96,R,ugm-3,806,R,ugm-3
09-01-1999,18:00,2.7,R,mgm-3,33,R,ugm-3 (GRAV EQ),348,R,ugm-3,92,R,ugm-3,623,R,ugm-3
09-01-1999,19:00,2.8,R,mgm-3,34,R,ugm-3 (GRAV EQ),374,R,ugm-3,97,R,ugm-3,669,R,ugm-3
09-01-1999,20:00,3.9,R,mgm-3,48,R,ugm-3 (GRAV EQ),470,R,ugm-3,88,R,ugm-3,806,R,ugm-3
09-01-1999,21:00,2.9,R,mgm-3,85,R,ugm-3 (GRAV EQ),381,R,ugm-3,92,R,ugm-3,674,R,ugm-3
09-01-1999,22:00,4.5,R,mgm-3,75,R,ugm-3 (GRAV EQ),479,R,ugm-3,94,R,ugm-3,825,R,ugm-3
09-01-1999,23:00,5.2,R,mgm-3,85,R,ugm-3 (GRAV EQ),660,R,ugm-3,113,R,ugm-3,1121,R,ugm-3
09-01-1999,24:00,5.2,R,mgm-3,95,R,ugm-3 (GRAV EQ),663,R,ugm-3,111,R,ugm-3,1123,R,ugm-3
10-01-1999,01:00,5.0,R,mgm-3,78,R,ugm-3 (GRAV EQ),521,R,ugm-3,103,R,ugm-3,900,R,ugm-3
10-01-1999,02:00,3.0,R,mgm-3,64,R,ugm-3 (GRAV EQ),338,R,ugm-3,76,R,ugm-3,592,R,ugm-3
10-01-1999,03:00,2.9,R,mgm-3,57,R,ugm-3 (GRAV EQ),283,R,ugm-3,65,R,ugm-3,497,R,ugm-3
10-01-1999,04:00,3.4,R,mgm-3,49,R,ugm-3 (GRAV EQ),260,R,ugm-3,59,R,ugm-3,456,R,ugm-3
10-01-1999,05:00,2.4,R,mgm-3,39,R,ugm-3 (GRAV EQ),185,R,ugm-3,53,R,ugm-3,336,R,ugm-3
10-01-1999,06:00,1.4,R,mgm-3,21,R,ugm-3 (GRAV EQ),98,R,ugm-3,42,R,ugm-3,191,R,ugm-3
10-01-1999,07:00,1.2,R,mgm-3,14,R,ugm-3 (GRAV EQ),95,R,ugm-3,42,R,ugm-3,187,R,ugm-3
10-01-1999,08:00,1.2,R,mgm-3,14,R,ugm-3 (GRAV EQ),116,R,ugm-3,52,R,ugm-3,229,R,ugm-3
10-01-1999,09:00,2.1,R,mgm-3,308,R,ugm-3 (GRAV EQ),204,R,ugm-3,52,R,ugm-3,363,R,ugm-3
10-01-1999,10:00,2.0,R,mgm-3,163,R,ugm-3 (GRAV EQ),264,R,ugm-3,52,R,ugm-3,455,R,ugm-3
10-01-1999,11:00,2.1,R,mgm-3,38,R,ugm-3 (GRAV EQ),301,R,ugm-3,74,R,ugm-3,535,R,ugm-3
10-01-1999,12:00,2.4,R,mgm-3,91,R,ugm-3 (GRAV EQ),369,R,ugm-3,71,R,ugm-3,634,R,ugm-3
10-01-1999,13:00,2.8,R,mgm-3,90,R,ugm-3 (GRAV EQ),383,R,ugm-3,84,R,ugm-3,669,R,ugm-3
10-01-1999,14:00,2.4,R,mgm-3,74,R,ugm-3 (GRAV EQ),274,R,ugm-3,82,R,ugm-3,500,R,ugm-3
10-01-1999,15:00,2.6,R,mgm-3,33,R,ugm-3 (GRAV EQ),236,R,ugm-3,84,R,ugm-3,445,R,ugm-3
10-01-1999,16:00,2.7,R,mgm-3,33,R,ugm-3 (GRAV EQ),233,R,ugm-3,82,R,ugm-3,437,R,ugm-3
10-01-1999,17:00,2.7,R,mgm-3,39,R,ugm-3 (GRAV EQ),275,R,ugm-3,78,R,ugm-3,499,R,ugm-3
10-01-1999,18:00,3.0,R,mgm-3,46,R,ugm-3 (GRAV EQ),356,R,ugm-3,80,R,ugm-3,625,R,ugm-3
10-01-1999,19:00,4.6,R,mgm-3,68,R,ugm-3 (GRAV EQ),538,R,ugm-3,90,R,ugm-3,911,R,ugm-3
10-01-1999,20:00,3.5,R,mgm-3,59,R,ugm-3 (GRAV EQ),370,R,ugm-3,80,R,ugm-3,646,R,ugm-3
10-01-1999,21:00,4.6,R,mgm-3,69,R,ugm-3 (GRAV EQ),524,R,ugm-3,92,R,ugm-3,892,R,ugm-3
10-01-1999,22:00,5.1,R,mgm-3,87,R,ugm-3 (GRAV EQ),570,R,ugm-3,99,R,ugm-3,970,R,ugm-3
10-01-1999,23:00,4.6,R,mgm-3,87,R,ugm-3 (GRAV EQ),613,R,ugm-3,99,R,ugm-3,1035,R,ugm-3
10-01-1999,24:00,3.6,R,mgm-3,64,R,ugm-3 (GRAV EQ),394,R,ugm-3,78,R,ugm-3,680,R,ugm-3
11-01-1999,01:00,3.8,R,mgm-3,64,R,ugm-3 (GRAV EQ),383,R,ugm-3,76,R,ugm-3,661,R,ugm-3
11-01-1999,02:00,2.3,R,mgm-3,52,R,ugm-3 (GRAV EQ),250,R,ugm-3,67,R,ugm-3,449,R,ugm-3
11-01-1999,03:00,1.7,R,mgm-3,35,R,ugm-3 (GRAV EQ),170,R,ugm-3,59,R,ugm-3,319,R,ugm-3
11-01-1999,04:00,1.9,R,mgm-3,39,R,ugm-3 (GRAV EQ),194,R,ugm-3,59,R,ugm-3,355,R,ugm-3
11-01-1999,05:00,2.3,R,mgm-3,39,R,ugm-3 (GRAV EQ),201,R,ugm-3,59,R,ugm-3,367,R,ugm-3
11-01-1999,06:00,1.7,R,mgm-3,30,R,ugm-3 (GRAV EQ),185,R,ugm-3,55,R,ugm-3,338,R,ugm-3
11-01-1999,07:00,1.5,R,mgm-3,43,R,ugm-3 (GRAV EQ),350,R,ugm-3,74,R,ugm-3,609,R,ugm-3
11-01-1999,08:00,3.1,R,mgm-3,66,R,ugm-3 (GRAV EQ),641,R,ugm-3,99,R,ugm-3,1079,R,ugm-3
11-01-1999,09:00,4.3,R,mgm-3,92,R,ugm-3 (GRAV EQ),820,R,ugm-3,126,R,ugm-3,1379,R,ugm-3
11-01-1999,10:00,4.4,R,mgm-3,113,R,ugm-3 (GRAV EQ),981,R,ugm-3,139,R,ugm-3,1639,R,ugm-3
11-01-1999,11:00,3.2,R,mgm-3,83,R,ugm-3 (GRAV EQ),695,R,ugm-3,132,R,ugm-3,1194,R,ugm-3
11-01-1999,12:00,4.2,R,mgm-3,144,R,ugm-3 (GRAV EQ),858,R,ugm-3,155,R,ugm-3,1465,R,ugm-3
11-01-1999,13:00,4.2,R,mgm-3,120,R,ugm-3 (GRAV EQ),845,R,ugm-3,170,R,ugm-3,1461,R,ugm-3
11-01-1999,14:00,4.3,R,mgm-3,120,R,ugm-3 (GRAV EQ),810,R,ugm-3,160,R,ugm-3,1398,R,ugm-3
11-01-1999,15:00,4.1,R,mgm-3,111,R,ugm-3 (GRAV EQ),744,R,ugm-3,170,R,ugm-3,1306,R,ugm-3
11-01-1999,16:00,3.8,R,mgm-3,116,R,ugm-3 (GRAV EQ),758,R,ugm-3,153,R,ugm-3,1310,R,ugm-3
11-01-1999,17:00,4.2,R,mgm-3,114,R,ugm-3 (GRAV EQ),773,R,ugm-3,145,R,ugm-3,1326,R,ugm-3
11-01-1999,18:00,5.2,R,mgm-3,104,R,ugm-3 (GRAV EQ),819,R,ugm-3,160,R,ugm-3,1411,R,ugm-3
11-01-1999,19:00,3.8,R,mgm-3,70,R,ugm-3 (GRAV EQ),608,R,ugm-3,122,R,ugm-3,1051,R,ugm-3
11-01-1999,20:00,2.2,R,mgm-3,29,R,ugm-3 (GRAV EQ),340,R,ugm-3,94,R,ugm-3,613,R,ugm-3
11-01-1999,21:00,2.0,R,mgm-3,18,R,ugm-3 (GRAV EQ),290,R,ugm-3,96,R,ugm-3,539,R,ugm-3
11-01-1999,22:00,1.4,R,mgm-3,10,R,ugm-3 (GRAV EQ),186,R,ugm-3,88,R,ugm-3,372,R,ugm-3
11-01-1999,23:00,1.4,R,mgm-3,16,R,ugm-3 (GRAV EQ),173,R,ugm-3,80,R,ugm-3,344,R,ugm-3
11-01-1999,24:00,1.0,R,mgm-3,14,R,ugm-3 (GRAV EQ),154,R,ugm-3,76,R,ugm-3,311,R,ugm-3
12-01-1999,01:00,0.7,R,mgm-3,3,R,ugm-3 (GRAV EQ),39,R,ugm-3,42,R,ugm-3,101,R,ugm-3
12-01-1999,02:00,0.3,R,mgm-3,-3,R,ugm-3 (GRAV EQ),19,R,ugm-3,27,R,ugm-3,55,R,ugm-3
12-01-1999,03:00,0.2,R,mgm-3,,,,13,R,ugm-3,13,R,ugm-3,32,R,ugm-3
12-01-1999,04:00,0.5,R,mgm-3,,,,20,R,ugm-3,25,R,ugm-3,55,R,ugm-3
12-01-1999,05:00,0.3,R,mgm-3,,,,13,R,ugm-3,17,R,ugm-3,36,R,ugm-3
12-01-1999,06:00,0.3,R,mgm-3,,,,21,R,ugm-3,23,R,ugm-3,55,R,ugm-3
12-01-1999,07:00,0.3,R,mgm-3,,,,45,R,ugm-3,38,R,ugm-3,107,R,ugm-3
12-01-1999,08:00,0.8,R,mgm-3,4,R,ugm-3 (GRAV EQ),103,R,ugm-3,65,R,ugm-3,222,R,ugm-3
12-01-1999,09:00,1.2,R,mgm-3,17,R,ugm-3 (GRAV EQ),156,R,ugm-3,82,R,ugm-3,321,R,ugm-3
12-01-1999,10:00,1.7,R,mgm-3,38,R,ugm-3 (GRAV EQ),345,R,ugm-3,111,R,ugm-3,638,R,ugm-3
12-01-1999,11:00,1.0,R,mgm-3,35,R,ugm-3 (GRAV EQ),194,R,ugm-3,90,R,ugm-3,386,R,ugm-3
12-01-1999,12:00,0.8,R,mgm-3,29,R,ugm-3 (GRAV EQ),135,R,ugm-3,88,R,ugm-3,294,R,ugm-3
12-01-1999,13:00,0.8,R,mgm-3,25,R,ugm-3 (GRAV EQ),106,R,ugm-3,76,R,ugm-3,239,R,ugm-3
12-01-1999,14:00,1.4,R,mgm-3,16,R,ugm-3 (GRAV EQ),98,R,ugm-3,76,R,ugm-3,225,R,ugm-3
12-01-1999,15:00,1.5,R,mgm-3,491,R,ugm-3 (GRAV EQ),98,R,ugm-3,74,R,ugm-3,223,R,ugm-3
12-01-1999,16:00,0.8,R,mgm-3,20,R,ugm-3 (GRAV EQ),84,R,ugm-3,71,R,ugm-3,199,R,ugm-3
12-01-1999,17:00,1.2,R,mgm-3,17,R,ugm-3 (GRAV EQ),131,R,ugm-3,82,R,ugm-3,283,R,ugm-3
12-01-1999,18:00,1.4,R,mgm-3,10,R,ugm-3 (GRAV EQ),79,R,ugm-3,71,R,ugm-3,191,R,ugm-3